Time,TemperatureF,DewpointF,PressureIn,WindDirection,WindDirectionDegrees,WindSpeedMPH,WindSpeedGustMPH,Humidity,HourlyPrecipIn,Conditions,Clouds,dailyrainin,SolarRadiationWatts/m^2,SoftwareType,DateUTC
2013-09-09 00:02:00,55.0,45.0,-100.00,West,276,4.0,9.0,69,0.00,,,0.00,0.000000,,2013-09-09 06:02:00,
2013-09-09 00:12:00,55.0,45.0,-100.00,West,276,4.0,9.0,69,0.00,,,0.00,0.000000,,2013-09-09 06:12:00,
2013-09-09 00:21:00,55.0,45.0,-100.00,West,276,4.0,9.0,69,0.00,,,0.00,0.000000,,2013-09-09 06:21:00,
2013-09-09 00:30:00,57.0,46.0,-100.00,NW,315,6.0,9.0,67,0.00,,,0.00,0.000000,,2013-09-09 06:30:00,
2013-09-09 00:52:00,57.0,46.0,-100.00,NW,315,6.0,9.0,67,0.00,,,0.00,0.000000,,2013-09-09 06:52:00,
2013-09-09 01:01:00,57.0,46.0,-100.00,NW,315,6.0,9.0,67,0.00,,,0.00,0.000000,,2013-09-09 07:01:00,
2013-09-09 01:11:00,57.0,46.0,-100.00,NW,315,6.0,9.0,67,0.00,,,0.00,0.000000,,2013-09-09 07:11:00,
2013-09-09 01:21:00,57.0,46.0,-100.00,NW,315,6.0,9.0,67,0.00,,,0.00,0.000000,,2013-09-09 07:21:00,
2013-09-09 01:30:00,55.0,44.0,-100.00,WNW,289,5.0,8.0,67,0.00,,,0.00,0.000000,,2013-09-09 07:30:00,
2013-09-09 01:52:00,55.0,44.0,-100.00,WNW,289,5.0,8.0,67,0.00,,,0.00,0.000000,,2013-09-09 07:52:00,
2013-09-09 02:02:00,55.0,44.0,-100.00,WNW,289,5.0,8.0,67,0.00,,,0.00,0.000000,,2013-09-09 08:02:00,
2013-09-09 02:11:00,55.0,44.0,-100.00,WNW,289,5.0,8.0,67,0.00,,,0.00,0.000000,,2013-09-09 08:11:00,
2013-09-09 02:21:00,55.0,44.0,-100.00,WNW,289,5.0,8.0,67,0.00,,,0.00,0.000000,,2013-09-09 08:21:00,
2013-09-09 02:30:00,55.0,46.0,-100.00,WNW,289,6.0,9.0,71,0.00,,,0.00,0.000000,,2013-09-09 08:30:00,
2013-09-09 02:52:00,55.0,46.0,-100.00,WNW,289,6.0,9.0,71,0.00,,,0.00,0.000000,,2013-09-09 08:52:00,
2013-09-09 03:01:00,55.0,46.0,-100.00,WNW,289,6.0,9.0,71,0.00,,,0.00,0.000000,,2013-09-09 09:01:00,
2013-09-09 03:12:00,55.0,46.0,-100.00,WNW,289,6.0,9.0,71,0.00,,,0.00,0.000000,,2013-09-09 09:12:00,
2013-09-09 03:22:00,55.0,46.0,-100.00,WNW,289,6.0,9.0,71,0.00,,,0.00,0.000000,,2013-09-09 09:22:00,
2013-09-09 03:30:00,54.0,45.0,-100.00,WNW,284,5.0,7.0,71,0.00,,,0.00,0.000000,,2013-09-09 09:30:00,
2013-09-09 03:54:00,54.0,45.0,-100.00,WNW,284,5.0,7.0,71,0.00,,,0.00,0.000000,,2013-09-09 09:54:00,
2013-09-09 04:03:00,54.0,45.0,-100.00,WNW,284,5.0,7.0,71,0.00,,,0.00,0.000000,,2013-09-09 10:03:00,
2013-09-09 04:12:00,54.0,45.0,-100.00,WNW,284,5.0,7.0,71,0.00,,,0.00,0.000000,,2013-09-09 10:12:00,
2013-09-09 04:23:00,54.0,45.0,-100.00,WNW,284,5.0,7.0,71,0.00,,,0.00,0.000000,,2013-09-09 10:23:00,
2013-09-09 04:30:00,55.0,48.0,-100.00,West,269,5.0,8.0,78,0.00,,,0.00,0.000000,,2013-09-09 10:30:00,
2013-09-09 04:52:00,55.0,48.0,-100.00,West,269,5.0,8.0,78,0.00,,,0.00,0.000000,,2013-09-09 10:52:00,
2013-09-09 05:02:00,55.0,48.0,-100.00,West,269,5.0,8.0,78,0.00,,,0.00,0.000000,,2013-09-09 11:02:00,
2013-09-09 05:11:00,55.0,48.0,-100.00,West,269,5.0,8.0,78,0.00,,,0.00,0.000000,,2013-09-09 11:11:00,
2013-09-09 05:22:00,55.0,48.0,-100.00,West,269,5.0,8.0,78,0.00,,,0.00,0.000000,,2013-09-09 11:22:00,
2013-09-09 05:30:00,55.0,47.0,-100.00,West,268,5.0,7.0,75,0.00,,,0.00,0.000000,,2013-09-09 11:30:00,
2013-09-09 05:52:00,55.0,47.0,-100.00,West,268,5.0,7.0,75,0.00,,,0.00,0.000000,,2013-09-09 11:52:00,
2013-09-09 06:01:00,55.0,47.0,-100.00,West,268,5.0,7.0,75,0.00,,,0.00,0.000000,,2013-09-09 12:01:00,
2013-09-09 06:12:00,55.0,47.0,-100.00,West,268,5.0,7.0,75,0.00,,,0.00,0.000000,,2013-09-09 12:12:00,
2013-09-09 06:22:00,55.0,47.0,-100.00,West,268,5.0,7.0,75,0.00,,,0.00,0.000000,,2013-09-09 12:22:00,
2013-09-09 06:30:00,52.0,45.0,-100.00,West,262,6.0,7.0,78,0.00,,,0.00,0.000000,,2013-09-09 12:30:00,
2013-09-09 06:52:00,52.0,45.0,-100.00,West,262,6.0,7.0,78,0.00,,,0.00,0.000000,,2013-09-09 12:52:00,
2013-09-09 07:01:00,52.0,45.0,-100.00,West,262,6.0,7.0,78,0.00,,,0.00,0.000000,,2013-09-09 13:01:00,
2013-09-09 07:11:00,52.0,45.0,-100.00,West,262,6.0,7.0,78,0.00,,,0.00,0.000000,,2013-09-09 13:11:00,
2013-09-09 07:21:00,52.0,45.0,-100.00,West,262,6.0,7.0,78,0.00,,,0.00,0.000000,,2013-09-09 13:21:00,
2013-09-09 07:30:00,52.0,45.0,-100.00,West,272,5.0,9.0,77,0.00,,,0.00,7.000000,,2013-09-09 13:30:00,
2013-09-09 07:52:00,52.0,45.0,-100.00,West,272,5.0,9.0,77,0.00,,,0.00,7.000000,,2013-09-09 13:52:00,
2013-09-09 08:02:00,52.0,45.0,-100.00,West,272,5.0,9.0,77,0.00,,,0.00,7.000000,,2013-09-09 14:02:00,
2013-09-09 08:12:00,52.0,45.0,-100.00,West,272,5.0,9.0,77,0.00,,,0.00,7.000000,,2013-09-09 14:12:00,
2013-09-09 08:21:00,52.0,45.0,-100.00,West,272,5.0,9.0,77,0.00,,,0.00,7.000000,,2013-09-09 14:21:00,
2013-09-09 08:30:00,56.0,46.0,-100.00,West,279,5.0,8.0,68,0.00,,,0.00,58.000000,,2013-09-09 14:30:00,
2013-09-09 08:52:00,56.0,46.0,-100.00,West,279,5.0,8.0,68,0.00,,,0.00,58.000000,,2013-09-09 14:52:00,
2013-09-09 09:02:00,56.0,46.0,-100.00,West,279,5.0,8.0,68,0.00,,,0.00,58.000000,,2013-09-09 15:02:00,
2013-09-09 09:11:00,56.0,46.0,-100.00,West,279,5.0,8.0,68,0.00,,,0.00,58.000000,,2013-09-09 15:11:00,
2013-09-09 09:22:00,56.0,46.0,-100.00,West,279,5.0,8.0,68,0.00,,,0.00,58.000000,,2013-09-09 15:22:00,
2013-09-09 09:30:00,61.0,49.0,-100.00,WNW,287,4.0,7.0,64,0.00,,,0.00,146.000000,,2013-09-09 15:30:00,
2013-09-09 09:53:00,61.0,49.0,-100.00,WNW,287,4.0,7.0,64,0.00,,,0.00,146.000000,,2013-09-09 15:53:00,
2013-09-09 10:04:00,61.0,49.0,-100.00,WNW,287,4.0,7.0,64,0.00,,,0.00,146.000000,,2013-09-09 16:04:00,
2013-09-09 10:13:00,61.0,49.0,-100.00,WNW,287,4.0,7.0,64,0.00,,,0.00,146.000000,,2013-09-09 16:13:00,
2013-09-09 10:24:00,61.0,49.0,-100.00,WNW,287,4.0,7.0,64,0.00,,,0.00,146.000000,,2013-09-09 16:24:00,
2013-09-09 10:30:00,68.0,49.0,-100.00,SW,234,5.0,8.0,50,0.00,,,0.00,400.000000,,2013-09-09 16:30:00,
2013-09-09 10:54:00,68.0,49.0,-100.00,SW,234,5.0,8.0,50,0.00,,,0.00,400.000000,,2013-09-09 16:54:00,
2013-09-09 11:03:00,68.0,49.0,-100.00,SW,234,5.0,8.0,50,0.00,,,0.00,400.000000,,2013-09-09 17:03:00,
2013-09-09 11:12:00,68.0,49.0,-100.00,SW,234,5.0,8.0,50,0.00,,,0.00,400.000000,,2013-09-09 17:12:00,
2013-09-09 11:23:00,68.0,49.0,-100.00,SW,234,5.0,8.0,50,0.00,,,0.00,400.000000,,2013-09-09 17:23:00,
2013-09-09 11:30:00,66.0,48.0,-100.00,SW,219,3.0,10.0,52,0.00,,,0.00,178.000000,,2013-09-09 17:30:00,
2013-09-09 11:53:00,66.0,48.0,-100.00,SW,219,3.0,10.0,52,0.00,,,0.00,178.000000,,2013-09-09 17:53:00,
2013-09-09 12:02:00,66.0,48.0,-100.00,SW,219,3.0,10.0,52,0.00,,,0.00,178.000000,,2013-09-09 18:02:00,
2013-09-09 12:13:00,66.0,48.0,-100.00,SW,219,3.0,10.0,52,0.00,,,0.00,178.000000,,2013-09-09 18:13:00,
2013-09-09 12:21:00,66.0,48.0,-100.00,SW,219,3.0,10.0,52,0.00,,,0.00,178.000000,,2013-09-09 18:21:00,
2013-09-09 12:30:00,73.0,52.0,-100.00,SSE,161,3.0,14.0,48,0.00,,,0.00,518.000000,,2013-09-09 18:30:00,
2013-09-09 12:52:00,73.0,52.0,-100.00,SSE,161,3.0,14.0,48,0.00,,,0.00,518.000000,,2013-09-09 18:52:00,
2013-09-09 13:02:00,73.0,52.0,-100.00,SSE,161,3.0,14.0,48,0.00,,,0.00,518.000000,,2013-09-09 19:02:00,
2013-09-09 13:11:00,73.0,52.0,-100.00,SSE,161,3.0,14.0,48,0.00,,,0.00,518.000000,,2013-09-09 19:11:00,
2013-09-09 13:22:00,73.0,52.0,-100.00,SSE,161,3.0,14.0,48,0.00,,,0.00,518.000000,,2013-09-09 19:22:00,
2013-09-09 13:30:00,73.0,49.0,-100.00,SW,233,4.0,12.0,43,0.00,,,0.00,598.000000,,2013-09-09 19:30:00,
2013-09-09 13:52:00,73.0,49.0,-100.00,SW,233,4.0,12.0,43,0.00,,,0.00,598.000000,,2013-09-09 19:52:00,
2013-09-09 14:02:00,73.0,49.0,-100.00,SW,233,4.0,12.0,43,0.00,,,0.00,598.000000,,2013-09-09 20:02:00,
2013-09-09 14:12:00,73.0,49.0,-100.00,SW,233,4.0,12.0,43,0.00,,,0.00,598.000000,,2013-09-09 20:12:00,
2013-09-09 14:21:00,73.0,49.0,-100.00,SW,233,4.0,12.0,43,0.00,,,0.00,598.000000,,2013-09-09 20:21:00,
2013-09-09 14:30:00,67.0,50.0,-100.00,SE,131,4.0,14.0,55,0.00,,,0.00,323.000000,,2013-09-09 20:30:00,
2013-09-09 14:53:00,67.0,50.0,-100.00,SE,131,4.0,14.0,55,0.00,,,0.00,323.000000,,2013-09-09 20:53:00,
2013-09-09 15:02:00,67.0,50.0,-100.00,SE,131,4.0,14.0,55,0.00,,,0.00,323.000000,,2013-09-09 21:02:00,
2013-09-09 15:12:00,67.0,50.0,-100.00,SE,131,4.0,14.0,55,0.00,,,0.00,323.000000,,2013-09-09 21:12:00,
2013-09-09 15:22:00,67.0,50.0,-100.00,SE,131,4.0,14.0,55,0.00,,,0.00,323.000000,,2013-09-09 21:22:00,
2013-09-09 15:30:00,65.0,54.0,-100.00,East,88,4.0,13.0,68,0.03,,,0.03,311.000000,,2013-09-09 21:30:00,
2013-09-09 15:54:00,65.0,54.0,-100.00,East,88,4.0,13.0,68,0.03,,,0.03,311.000000,,2013-09-09 21:54:00,
2013-09-09 16:05:00,65.0,54.0,-100.00,East,88,4.0,13.0,68,0.03,,,0.03,311.000000,,2013-09-09 22:05:00,
2013-09-09 16:24:00,65.0,54.0,-100.00,East,88,4.0,13.0,68,0.03,,,0.03,311.000000,,2013-09-09 22:24:00,
2013-09-09 16:30:00,72.0,54.0,-100.00,WNW,302,2.0,7.0,54,-99.99,,,0.03,561.000000,,2013-09-09 22:30:00,
2013-09-09 16:54:00,72.0,54.0,-100.00,WNW,302,2.0,7.0,54,-99.99,,,0.03,561.000000,,2013-09-09 22:54:00,
2013-09-09 17:03:00,72.0,54.0,-100.00,WNW,302,2.0,7.0,54,-99.99,,,0.03,561.000000,,2013-09-09 23:03:00,
2013-09-09 17:12:00,72.0,54.0,-100.00,WNW,302,2.0,7.0,54,-99.99,,,0.03,561.000000,,2013-09-09 23:12:00,
2013-09-09 17:22:00,72.0,54.0,-100.00,WNW,302,2.0,7.0,54,-99.99,,,0.03,561.000000,,2013-09-09 23:22:00,
2013-09-09 17:30:00,73.0,56.0,-100.00,West,278,3.0,9.0,55,0.00,,,0.03,231.000000,,2013-09-09 23:30:00,
2013-09-09 17:52:00,73.0,56.0,-100.00,West,278,3.0,9.0,55,0.00,,,0.03,231.000000,,2013-09-09 23:52:00,
2013-09-09 18:02:00,73.0,56.0,-100.00,West,278,3.0,9.0,55,0.00,,,0.03,231.000000,,2013-09-10 00:02:00,
2013-09-09 18:12:00,73.0,56.0,-100.00,West,278,3.0,9.0,55,0.00,,,0.03,231.000000,,2013-09-10 00:12:00,
2013-09-09 18:21:00,73.0,56.0,-100.00,West,278,3.0,9.0,55,0.00,,,0.03,231.000000,,2013-09-10 00:21:00,
2013-09-09 18:30:00,74.0,49.0,-100.00,West,263,3.0,7.0,42,0.00,,,0.03,399.000000,,2013-09-10 00:30:00,
2013-09-09 18:52:00,74.0,49.0,-100.00,West,263,3.0,7.0,42,0.00,,,0.03,399.000000,,2013-09-10 00:52:00,
2013-09-09 19:01:00,74.0,49.0,-100.00,West,263,3.0,7.0,42,0.00,,,0.03,399.000000,,2013-09-10 01:01:00,
2013-09-09 19:11:00,74.0,49.0,-100.00,West,263,3.0,7.0,42,0.00,,,0.03,399.000000,,2013-09-10 01:11:00,
2013-09-09 19:21:00,74.0,49.0,-100.00,West,263,3.0,7.0,42,0.00,,,0.03,399.000000,,2013-09-10 01:21:00,
2013-09-09 19:30:00,70.0,48.0,-100.00,NE,46,4.0,11.0,45,0.00,,,0.03,168.000000,,2013-09-10 01:30:00,
2013-09-09 19:53:00,70.0,48.0,-100.00,NE,46,4.0,11.0,45,0.00,,,0.03,168.000000,,2013-09-10 01:53:00,
2013-09-09 20:02:00,70.0,48.0,-100.00,NE,46,4.0,11.0,45,0.00,,,0.03,168.000000,,2013-09-10 02:02:00,
2013-09-09 20:12:00,70.0,48.0,-100.00,NE,46,4.0,11.0,45,0.00,,,0.03,168.000000,,2013-09-10 02:12:00,
2013-09-09 20:22:00,70.0,48.0,-100.00,NE,46,4.0,11.0,45,0.00,,,0.03,168.000000,,2013-09-10 02:22:00,
2013-09-09 20:30:00,63.0,49.0,-100.00,SW,222,2.0,5.0,61,0.00,,,0.03,7.000000,,2013-09-10 02:30:00,
2013-09-09 20:52:00,63.0,49.0,-100.00,SW,222,2.0,5.0,61,0.00,,,0.03,7.000000,,2013-09-10 02:52:00,
2013-09-09 21:02:00,63.0,49.0,-100.00,SW,222,2.0,5.0,61,0.00,,,0.03,7.000000,,2013-09-10 03:02:00,
2013-09-09 21:12:00,63.0,49.0,-100.00,SW,222,2.0,5.0,61,0.00,,,0.03,7.000000,,2013-09-10 03:12:00,
2013-09-09 21:22:00,63.0,49.0,-100.00,SW,222,2.0,5.0,61,0.00,,,0.03,7.000000,,2013-09-10 03:22:00,
2013-09-09 21:30:00,59.0,51.0,-100.00,NW,307,3.0,4.0,76,0.00,,,0.03,0.000000,,2013-09-10 03:30:00,
2013-09-09 21:54:00,59.0,51.0,-100.00,NW,307,3.0,4.0,76,0.00,,,0.03,0.000000,,2013-09-10 03:54:00,
2013-09-09 22:04:00,59.0,51.0,-100.00,NW,307,3.0,4.0,76,0.00,,,0.03,0.000000,,2013-09-10 04:04:00,
2013-09-09 22:13:00,59.0,51.0,-100.00,NW,307,3.0,4.0,76,0.00,,,0.03,0.000000,,2013-09-10 04:13:00,
2013-09-09 22:24:00,59.0,51.0,-100.00,NW,307,3.0,4.0,76,0.00,,,0.03,0.000000,,2013-09-10 04:24:00,
2013-09-09 22:30:00,58.0,52.0,-100.00,ESE,110,3.0,5.0,79,0.00,,,0.03,0.000000,,2013-09-10 04:30:00,
2013-09-09 22:53:00,58.0,52.0,-100.00,ESE,110,3.0,5.0,79,0.00,,,0.03,0.000000,,2013-09-10 04:53:00,
2013-09-09 23:03:00,58.0,52.0,-100.00,ESE,110,3.0,5.0,79,0.00,,,0.03,0.000000,,2013-09-10 05:03:00,
2013-09-09 23:13:00,58.0,52.0,-100.00,ESE,110,3.0,5.0,79,0.00,,,0.03,0.000000,,2013-09-10 05:13:00,
2013-09-09 23:23:00,58.0,52.0,-100.00,ESE,110,3.0,5.0,79,0.00,,,0.03,0.000000,,2013-09-10 05:23:00,
2013-09-09 23:30:00,54.0,50.0,-100.00,West,260,2.0,4.0,87,0.00,,,0.03,0.000000,,2013-09-10 05:30:00,
2013-09-09 23:53:00,54.0,50.0,-100.00,West,260,2.0,4.0,87,0.00,,,0.03,0.000000,,2013-09-10 05:53:00,